| time (UTC) | temp C | wind direction | speed KPH | gust KPH | rain 1hr cm | rain 24hr cm | rain mn cm | humidity % | barometer mb |
| 20260507155027 | 13 | 101 | 1.6 | 11.3 | 0.00 | 1.91 | 0.48 | 72 | 1007.4 |
| 20260507154537 | 13 | 123 | 1.6 | 11.3 | 0.00 | 1.91 | 0.48 | 73 | 1007.3 |
| 20260507154026 | 12 | 91 | 4.8 | 11.3 | 0.00 | 1.91 | 0.48 | 73 | 1007.3 |
| 20260507153526 | 12 | 96 | 3.2 | 14.5 | 0.00 | 1.91 | 0.48 | 71 | 1007.3 |
| 20260507153038 | 12 | 98 | 3.2 | 14.5 | 0.00 | 1.91 | 0.48 | 73 | 1007.5 |
| 20260507152526 | 12 | 100 | 4.8 | 14.5 | 0.00 | 1.91 | 0.48 | 74 | 1007.5 |
| 20260507152027 | 12 | 109 | 1.6 | 11.3 | 0.00 | 1.91 | 0.48 | 74 | 1007.8 |
| 20260507151535 | 12 | 89 | 3.2 | 11.3 | 0.00 | 1.91 | 0.48 | 75 | 1007.6 |
| 20260507151026 | 12 | 96 | 3.2 | 9.7 | 0.00 | 1.91 | 0.48 | 74 | 1007.7 |
| 20260507150529 | 12 | 95 | 4.8 | 11.3 | 0.00 | 1.91 | 0.48 | 76 | 1007.7 |
| 20260507150036 | 12 | 94 | 4.8 | 11.3 | 0.00 | 1.91 | 0.48 | 78 | 1007.5 |
| 20260507145526 | 12 | 86 | 4.8 | 9.7 | 0.00 | 1.91 | 0.48 | 76 | 1007.5 |
| 20260507145029 | 12 | 99 | 4.8 | 9.7 | 0.00 | 1.91 | 0.48 | 76 | 1007.6 |
| 20260507144536 | 12 | 90 | 3.2 | 6.4 | 0.00 | 1.91 | 0.48 | 77 | 1007.8 |
| 20260507144027 | 12 | 90 | 3.2 | 6.4 | 0.00 | 1.91 | 0.48 | 77 | 1007.8 |
| 20260507143526 | 11 | 90 | 3.2 | 6.4 | 0.00 | 1.91 | 0.48 | 77 | 1007.8 |
| 20260507143039 | 11 | 90 | 4.8 | 6.4 | 0.00 | 1.91 | 0.48 | 78 | 1007.8 |
| 20260507142528 | 11 | 90 | 3.2 | 6.4 | 0.00 | 1.91 | 0.48 | 78 | 1008.1 |
| 20260507142026 | 11 | 90 | 3.2 | 9.7 | 0.00 | 1.91 | 0.48 | 78 | 1008.2 |
| 20260507141542 | 11 | 90 | 3.2 | 9.7 | 0.00 | 1.91 | 0.48 | 78 | 1008.3 |
| 20260507141029 | 11 | 90 | 4.8 | 9.7 | 0.00 | 1.91 | 0.48 | 78 | 1008.3 |
| 20260507140529 | 11 | 90 | 4.8 | 9.7 | 0.00 | 1.91 | 0.48 | 79 | 1008.3 |
| 20260507140037 | 11 | 90 | 4.8 | 9.7 | 0.00 | 1.91 | 0.48 | 79 | 1008.2 |
| 20260507135727 | 11 | 86 | 4.8 | 11.3 | 0.00 | 1.91 | 0.48 | 79 | 1008.2 |
| 20260507135657 | 11 | 86 | 4.8 | 11.3 | 0.00 | 1.91 | 0.48 | 79 | 1008.2 |
| 20260507135627 | 11 | 86 | 4.8 | 11.3 | 0.00 | 1.91 | 0.48 | 79 | 1008.2 |
| 20260507135527 | 11 | 86 | 4.8 | 11.3 | 0.00 | 1.91 | 0.48 | 79 | 1008.2 |
| 20260507135027 | 11 | 82 | 3.2 | 11.3 | 0.00 | 1.91 | 0.48 | 79 | 1008.1 |
| 20260507134538 | 11 | 82 | 3.2 | 11.3 | 0.00 | 1.91 | 0.48 | 78 | 1008.3 |
| 20260507134026 | 11 | 327 | 4.8 | 6.4 | 0.00 | 1.91 | 0.48 | 78 | 1008.4 |
| 20260507133527 | 11 | 267 | 0.0 | 6.4 | 0.00 | 1.91 | 0.48 | 78 | 1008.3 |
| 20260507133040 | 11 | 303 | 0.0 | 6.4 | 0.00 | 1.91 | 0.48 | 79 | 1008.3 |
| 20260507132526 | 11 | 238 | 1.6 | 9.7 | 0.00 | 1.91 | 0.48 | 79 | 1008.5 |
| 20260507132028 | 11 | 238 | 1.6 | 11.3 | 0.00 | 1.91 | 0.48 | 80 | 1008.6 |
| 20260507131537 | 11 | 13 | 3.2 | 12.9 | 0.00 | 1.91 | 0.48 | 81 | 1008.3 |
| 20260507131027 | 11 | 0 | 3.2 | 16.1 | 0.00 | 1.91 | 0.48 | 81 | 1008.3 |
| 20260507130527 | 10 | 15 | 6.4 | 16.1 | 0.00 | 1.91 | 0.48 | 81 | 1008.2 |
| 20260507130047 | 10 | 58 | 1.6 | 12.9 | 0.00 | 1.91 | 0.48 | 82 | 1008.5 |
| 20260507125526 | 10 | 301 | 3.2 | 14.5 | 0.00 | 1.91 | 0.48 | 83 | 1008.5 |
| 20260507125026 | 10 | 0 | 1.6 | 16.1 | 0.00 | 1.91 | 0.48 | 84 | 1008.2 |
| 20260507124548 | 10 | 20 | 4.8 | 16.1 | 0.00 | 1.91 | 0.48 | 84 | 1007.8 |
| 20260507124026 | 10 | 21 | 3.2 | 14.5 | 0.00 | 1.91 | 0.48 | 85 | 1007.7 |
| 20260507123527 | 10 | 292 | 4.8 | 17.7 | 0.00 | 1.91 | 0.48 | 86 | 1007.6 |
| 20260507123339 | 9 | 269 | 4.8 | 17.7 | 0.00 | 1.91 | 0.48 | 87 | 1007.5 |
| 20260507123259 | 9 | 269 | 4.8 | 17.7 | 0.00 | 1.91 | 0.48 | 87 | 1007.5 |
| 20260507123158 | 9 | 269 | 4.8 | 17.7 | 0.00 | 1.91 | 0.48 | 87 | 1007.5 |
| 20260507123128 | 9 | 269 | 4.8 | 17.7 | 0.00 | 1.91 | 0.48 | 87 | 1007.5 |
| 20260507123040 | 9 | 269 | 4.8 | 17.7 | 0.00 | 1.91 | 0.48 | 87 | 1007.5 |
| 20260507122526 | 8 | 0 | 0.0 | 8.0 | 0.00 | 1.91 | 0.48 | 87 | 1007.2 |
| 20260507122026 | 8 | 0 | 0.0 | 8.0 | 0.00 | 1.91 | 0.48 | 87 | 1007.4 |
| 20260507121538 | 8 | 352 | 3.2 | 8.0 | 0.00 | 1.91 | 0.48 | 88 | 1007.2 |
| 20260507121028 | 8 | 0 | 0.0 | 8.0 | 0.00 | 1.91 | 0.48 | 88 | 1007.7 |
| 20260507120532 | 8 | 0 | 3.2 | 6.4 | 0.00 | 1.91 | 0.48 | 89 | 1007.7 |
| 20260507120150 | 8 | 290 | 0.0 | 6.4 | 0.00 | 1.91 | 0.48 | 89 | 1007.3 |
| 20260507115527 | 8 | 0 | 0.0 | 6.4 | 0.00 | 1.91 | 0.48 | 89 | 1008.1 |
| 20260507115031 | 8 | 0 | 0.0 | 6.4 | 0.00 | 1.91 | 0.48 | 89 | 1008.2 |
| 20260507114546 | 8 | 0 | 1.6 | 8.0 | 0.00 | 1.91 | 0.48 | 90 | 1007.8 |
| 20260507114026 | 8 | 340 | 3.2 | 8.0 | 0.00 | 1.91 | 0.48 | 90 | 1007.6 |
| 20260507113526 | 8 | 0 | 0.0 | 0.0 | 0.00 | 1.91 | 0.48 | 90 | 1008.1 |
| 20260507113037 | 8 | 0 | 0.0 | 0.0 | 0.00 | 1.91 | 0.48 | 90 | 1008.4 |
| 20260507112527 | 8 | 0 | 0.0 | 0.0 | 0.00 | 1.91 | 0.48 | 90 | 1008.1 |
| 20260507112026 | 7 | 0 | 0.0 | 0.0 | 0.00 | 1.91 | 0.48 | 90 | 1008.0 |
| 20260507111542 | 7 | 0 | 0.0 | 6.4 | 0.00 | 1.91 | 0.48 | 91 | 1008.2 |
| 20260507111026 | 7 | 0 | 0.0 | 8.0 | 0.00 | 1.91 | 0.48 | 91 | 1008.1 |
| 20260507110527 | 7 | 293 | 1.6 | 8.0 | 0.00 | 1.91 | 0.48 | 91 | 1007.8 |
| 20260507110057 | 7 | 0 | 0.0 | 8.0 | 0.00 | 1.91 | 0.48 | 91 | 1007.7 |
| 20260507105526 | 7 | 0 | 0.0 | 11.3 | 0.00 | 1.91 | 0.48 | 91 | 1007.6 |
| 20260507105027 | 7 | 242 | 1.6 | 11.3 | 0.00 | 1.91 | 0.48 | 91 | 1008.2 |
| 20260507104545 | 7 | 242 | 3.2 | 9.7 | 0.00 | 1.91 | 0.48 | 91 | 1007.9 |
| 20260507104029 | 7 | 0 | 0.0 | 4.8 | 0.00 | 1.91 | 0.48 | 91 | 1007.1 |
| 20260507103527 | 7 | 0 | 0.0 | 4.8 | 0.00 | 1.91 | 0.48 | 91 | 1007.1 |
| 20260507103036 | 7 | 268 | 0.0 | 11.3 | 0.00 | 1.91 | 0.48 | 91 | 1007.4 |
| 20260507102527 | 7 | 0 | 1.6 | 11.3 | 0.00 | 1.91 | 0.48 | 91 | 1007.3 |
| 20260507102029 | 7 | 0 | 0.0 | 4.8 | 0.00 | 1.91 | 0.48 | 91 | 1007.2 |
| 20260507101543 | 7 | 279 | 0.0 | 4.8 | 0.00 | 1.91 | 0.48 | 91 | 1006.9 |
| 20260507101027 | 8 | 0 | 0.0 | 6.4 | 0.00 | 1.91 | 0.48 | 92 | 1006.9 |
| 20260507100529 | 8 | 0 | 0.0 | 12.9 | 0.00 | 1.91 | 0.48 | 92 | 1006.6 |
| 20260507100044 | 7 | 279 | 3.2 | 12.9 | 0.00 | 1.91 | 0.48 | 91 | 1007.1 |
| 20260507095529 | 8 | 0 | 0.0 | 6.4 | 0.00 | 1.91 | 0.48 | 92 | 1007.1 |
| 20260507095029 | 8 | 0 | 0.0 | 6.4 | 0.00 | 1.91 | 0.48 | 92 | 1006.9 |
| 20260507094540 | 7 | 0 | 0.0 | 3.2 | 0.00 | 1.91 | 0.48 | 92 | 1006.9 |
| 20260507094029 | 8 | 0 | 0.0 | 3.2 | 0.00 | 1.91 | 0.48 | 92 | 1006.7 |
| 20260507093528 | 8 | 90 | 0.0 | 3.2 | 0.00 | 1.91 | 0.48 | 92 | 1006.5 |
| 20260507093039 | 8 | 0 | 0.0 | 0.0 | 0.00 | 1.91 | 0.48 | 92 | 1006.6 |
| 20260507092529 | 8 | 0 | 0.0 | 0.0 | 0.00 | 1.91 | 0.48 | 92 | 1006.9 |
| 20260507092028 | 8 | 0 | 0.0 | 0.0 | 0.00 | 1.91 | 0.48 | 92 | 1007.1 |
| 20260507091541 | 8 | 0 | 0.0 | 0.0 | 0.00 | 1.91 | 0.48 | 92 | 1007.1 |
| 20260507091027 | 8 | 0 | 0.0 | 0.0 | 0.00 | 1.91 | 0.48 | 92 | 1007.1 |
| 20260507090530 | 8 | 0 | 0.0 | 6.4 | 0.00 | 1.91 | 0.48 | 92 | 1007.1 |
| 20260507090037 | 8 | 0 | 0.0 | 6.4 | 0.00 | 1.91 | 0.48 | 92 | 1007.0 |
| 20260507085527 | 8 | 217 | 0.0 | 6.4 | 0.00 | 1.91 | 0.48 | 92 | 1007.1 |
| 20260507085027 | 8 | 0 | 1.6 | 9.7 | 0.00 | 1.91 | 0.48 | 92 | 1006.8 |
| 20260507084541 | 8 | 197 | 0.0 | 11.3 | 0.00 | 1.91 | 0.48 | 92 | 1006.5 |
| 20260507084027 | 8 | 0 | 0.0 | 11.3 | 0.00 | 1.91 | 0.48 | 92 | 1006.3 |
| 20260507083527 | 8 | 19 | 1.6 | 9.7 | 0.00 | 1.91 | 0.48 | 92 | 1006.3 |
| 20260507083040 | 8 | 0 | 0.0 | 9.7 | 0.00 | 1.91 | 0.48 | 92 | 1006.2 |
| 20260507082526 | 8 | 321 | 1.6 | 11.3 | 0.00 | 1.91 | 0.48 | 92 | 1006.1 |
| 20260507082030 | 8 | 0 | 1.6 | 11.3 | 0.00 | 1.91 | 0.48 | 92 | 1006.2 |
| 20260507081537 | 8 | 0 | 0.0 | 11.3 | 0.03 | 1.91 | 0.48 | 92 | 1006.2 |
| 20260507081028 | 8 | 274 | 1.6 | 11.3 | 0.03 | 1.91 | 0.48 | 92 | 1006.4 |
| 20260507080527 | 8 | 0 | 1.6 | 11.3 | 0.03 | 1.91 | 0.48 | 92 | 1006.3 |
| 20260507080038 | 8 | 246 | 1.6 | 8.0 | 0.03 | 1.91 | 0.48 | 92 | 1006.1 |
| 20260507075526 | 8 | 0 | 1.6 | 12.9 | 0.03 | 1.91 | 0.48 | 92 | 1006.2 |
| 20260507075026 | 8 | 248 | 0.0 | 12.9 | 0.03 | 1.91 | 0.48 | 92 | 1005.9 |
| 20260507074537 | 8 | 279 | 3.2 | 12.9 | 0.03 | 1.91 | 0.48 | 92 | 1005.9 |
| 20260507074026 | 8 | 227 | 1.6 | 14.5 | 0.03 | 1.91 | 0.48 | 92 | 1005.9 |
| 20260507073526 | 8 | 0 | 3.2 | 14.5 | 0.03 | 1.91 | 0.48 | 92 | 1006.0 |
| 20260507073045 | 8 | 225 | 0.0 | 11.3 | 0.03 | 1.91 | 0.48 | 92 | 1005.7 |
| 20260507072527 | 8 | 0 | 0.0 | 11.3 | 0.03 | 1.91 | 0.48 | 92 | 1005.8 |
| 20260507072026 | 8 | 265 | 1.6 | 11.3 | 0.03 | 1.91 | 0.48 | 92 | 1005.9 |
| 20260507071539 | 8 | 238 | 1.6 | 11.3 | 0.00 | 1.88 | 0.46 | 92 | 1005.8 |
| 20260507071027 | 8 | 0 | 1.6 | 11.3 | 0.03 | 1.88 | 0.46 | 92 | 1005.6 |
| 20260507070527 | 8 | 196 | 1.6 | 9.7 | 0.03 | 1.88 | 0.46 | 92 | 1005.5 |
| 20260507070043 | 9 | 288 | 0.0 | 11.3 | 0.08 | 1.88 | 0.46 | 92 | 1005.6 |
| 20260507065526 | 9 | 243 | 1.6 | 11.3 | 0.13 | 1.88 | 0.46 | 92 | 1005.5 |
| 20260507065026 | 9 | 0 | 1.6 | 9.7 | 0.25 | 1.88 | 0.46 | 92 | 1005.5 |
| 20260507064537 | 9 | 0 | 1.6 | 9.7 | 0.33 | 1.88 | 0.46 | 92 | 1005.6 |
| 20260507064026 | 9 | 273 | 0.0 | 9.7 | 0.43 | 1.88 | 0.46 | 92 | 1005.8 |
| 20260507063527 | 9 | 0 | 0.0 | 3.2 | 0.43 | 1.88 | 0.46 | 92 | 1005.7 |
| 20260507063051 | 9 | 0 | 0.0 | 6.4 | 0.43 | 1.88 | 0.46 | 92 | 1005.5 |
| 20260507062526 | 9 | 0 | 0.0 | 9.7 | 0.46 | 1.88 | 0.46 | 92 | 1005.3 |
| 20260507062026 | 9 | 0 | 0.0 | 9.7 | 0.46 | 1.88 | 0.46 | 92 | 1005.4 |
| 20260507061546 | 9 | 273 | 0.0 | 6.4 | 0.46 | 1.88 | 0.46 | 92 | 1005.5 |
| 20260507061026 | 9 | 0 | 0.0 | 6.4 | 0.43 | 1.85 | 0.43 | 92 | 1005.3 |
| 20260507060527 | 9 | 0 | 0.0 | 12.9 | 0.43 | 1.85 | 0.43 | 92 | 1005.4 |
| 20260507060045 | 9 | 360 | 1.6 | 17.7 | 0.38 | 1.80 | 0.38 | 92 | 1005.3 |
| 20260507055527 | 9 | 281 | 6.4 | 17.7 | 0.30 | 1.75 | 0.30 | 92 | 1006.3 |
| 20260507055026 | 9 | 217 | 1.6 | 9.7 | 0.20 | 1.65 | 0.20 | 92 | 1006.6 |
| 20260507054541 | 9 | 212 | 0.0 | 11.3 | 0.13 | 1.57 | 0.13 | 92 | 1005.6 |
| 20260507054028 | 9 | 244 | 1.6 | 11.3 | 0.03 | 1.47 | 0.03 | 92 | 1005.4 |
| 20260507053527 | 9 | 225 | 0.0 | 9.7 | 0.03 | 1.47 | 0.03 | 92 | 1005.3 |
| 20260507053039 | 10 | 230 | 3.2 | 9.7 | 0.03 | 1.47 | 0.03 | 92 | 1005.2 |
| 20260507052527 | 10 | 174 | 0.0 | 12.9 | 0.00 | 1.45 | 0.00 | 92 | 1005.2 |
| 20260507052027 | 10 | 0 | 1.6 | 16.1 | 0.00 | 1.45 | 0.00 | 92 | 1005.3 |
| 20260507051537 | 10 | 200 | 3.2 | 16.1 | 0.00 | 1.45 | 0.00 | 92 | 1005.5 |
| 20260507051028 | 10 | 277 | 3.2 | 16.1 | 0.00 | 1.45 | 0.00 | 92 | 1005.5 |
| 20260507050527 | 10 | 271 | 3.2 | 12.9 | 0.00 | 1.45 | 0.00 | 92 | 1005.5 |
| 20260507050043 | 10 | 0 | 0.0 | 12.9 | 0.00 | 1.45 | 0.00 | 92 | 1005.5 |
| 20260507045527 | 10 | 0 | 0.0 | 3.2 | 0.00 | 1.45 | 0.00 | 92 | 1005.3 |
| 20260507045027 | 10 | 0 | 0.0 | 3.2 | 0.00 | 1.45 | 0.00 | 92 | 1005.4 |
| 20260507044542 | 10 | 0 | 0.0 | 3.2 | 0.00 | 1.45 | 0.00 | 92 | 1005.4 |
| 20260507044026 | 10 | 0 | 0.0 | 0.0 | 0.00 | 1.45 | 0.00 | 92 | 1005.4 |
| 20260507043528 | 10 | 0 | 0.0 | 9.7 | 0.00 | 1.45 | 0.00 | 92 | 1005.3 |
| 20260507043038 | 10 | 0 | 0.0 | 9.7 | 0.03 | 1.45 | 0.00 | 92 | 1005.3 |
| 20260507042527 | 10 | 192 | 0.0 | 11.3 | 0.03 | 1.45 | 0.00 | 92 | 1005.6 |
| 20260507042026 | 10 | 0 | 0.0 | 11.3 | 0.03 | 1.45 | 0.00 | 92 | 1005.5 |
| 20260507041537 | 10 | 250 | 0.0 | 11.3 | 0.03 | 1.45 | 0.00 | 92 | 1005.8 |
| 20260507041026 | 10 | 248 | 0.0 | 11.3 | 0.03 | 1.45 | 0.00 | 92 | 1005.9 |
| 20260507040527 | 10 | 239 | 1.6 | 14.5 | 0.03 | 1.45 | 0.00 | 92 | 1006.0 |
| 20260507040036 | 10 | 268 | 0.0 | 14.5 | 0.03 | 1.45 | 0.00 | 92 | 1006.0 |
| 20260507035527 | 10 | 0 | 3.2 | 20.9 | 0.05 | 1.45 | 1.45 | 92 | 1006.0 |
| 20260507035029 | 10 | 0 | 1.6 | 20.9 | 0.08 | 1.45 | 1.45 | 92 | 1006.1 |
| 20260507034542 | 10 | 230 | 3.2 | 16.1 | 0.10 | 1.45 | 1.45 | 92 | 1006.1 |
| 20260507034027 | 10 | 190 | 1.6 | 17.7 | 0.13 | 1.45 | 1.45 | 92 | 1006.0 |
| 20260507033531 | 10 | 0 | 3.2 | 17.7 | 0.18 | 1.45 | 1.45 | 92 | 1006.0 |
| 20260507033042 | 10 | 253 | 1.6 | 12.9 | 0.18 | 1.42 | 1.42 | 92 | 1006.1 |
| 20260507032527 | 9 | 0 | 0.0 | 8.0 | 0.20 | 1.42 | 1.42 | 92 | 1006.1 |
| 20260507032026 | 9 | 220 | 0.0 | 6.4 | 0.23 | 1.42 | 1.42 | 92 | 1006.1 |
| 20260507031537 | 9 | 278 | 0.0 | 6.4 | 0.25 | 1.42 | 1.42 | 92 | 1006.3 |
| 20260507031028 | 9 | 0 | 0.0 | 14.5 | 0.25 | 1.42 | 1.42 | 92 | 1006.3 |
| 20260507030529 | 9 | 250 | 0.0 | 14.5 | 0.28 | 1.42 | 1.42 | 92 | 1006.4 |
| 20260507030035 | 9 | 252 | 1.6 | 14.5 | 0.30 | 1.42 | 1.42 | 92 | 1006.4 |
| 20260507025525 | 9 | 225 | 1.6 | 12.9 | 0.33 | 1.40 | 1.40 | 92 | 1006.5 |
| 20260507025027 | 9 | 230 | 1.6 | 14.5 | 0.33 | 1.37 | 1.37 | 91 | 1006.4 |
| 20260507024545 | 9 | 0 | 3.2 | 16.1 | 0.33 | 1.32 | 1.32 | 92 | 1006.5 |
| 20260507024027 | 9 | 167 | 1.6 | 16.1 | 0.36 | 1.32 | 1.32 | 92 | 1006.7 |
| 20260507023527 | 9 | 254 | 3.2 | 22.5 | 0.33 | 1.27 | 1.27 | 92 | 1006.8 |
| 20260507023040 | 10 | 294 | 3.2 | 22.5 | 0.33 | 1.24 | 1.24 | 91 | 1006.8 |
| 20260507022527 | 10 | 208 | 6.4 | 22.5 | 0.36 | 1.22 | 1.22 | 91 | 1006.9 |
| 20260507022027 | 10 | 275 | 3.2 | 22.5 | 0.30 | 1.17 | 1.17 | 91 | 1006.9 |
| 20260507021539 | 10 | 82 | 4.8 | 20.9 | 0.33 | 1.17 | 1.17 | 91 | 1006.8 |
| 20260507021029 | 10 | 219 | 4.8 | 20.9 | 0.33 | 1.14 | 1.14 | 91 | 1006.9 |
| 20260507020527 | 10 | 247 | 4.8 | 20.9 | 0.36 | 1.14 | 1.14 | 91 | 1006.9 |
| 20260507020043 | 9 | 230 | 1.6 | 27.4 | 0.36 | 1.12 | 1.12 | 91 | 1007.0 |
| 20260507015528 | 9 | 174 | 6.4 | 27.4 | 0.30 | 1.07 | 1.07 | 91 | 1007.2 |
| 20260507015026 | 9 | 39 | 4.8 | 17.7 | 0.30 | 1.04 | 1.04 | 91 | 1007.3 |
| 20260507014538 | 9 | 236 | 4.8 | 17.7 | 0.30 | 1.02 | 1.02 | 91 | 1007.5 |
| 20260507014026 | 9 | 300 | 4.8 | 19.3 | 0.25 | 0.97 | 0.97 | 91 | 1007.7 |
| 20260507013526 | 9 | 235 | 3.2 | 20.9 | 0.25 | 0.94 | 0.94 | 91 | 1007.9 |
| 20260507013048 | 9 | 250 | 3.2 | 25.7 | 0.25 | 0.89 | 0.89 | 91 | 1008.0 |
| 20260507012526 | 9 | 88 | 4.8 | 25.7 | 0.25 | 0.86 | 0.86 | 91 | 1008.1 |
| 20260507012027 | 9 | 171 | 3.2 | 14.5 | 0.28 | 0.86 | 0.86 | 91 | 1008.1 |
| 20260507011544 | 9 | 263 | 3.2 | 16.1 | 0.28 | 0.84 | 0.84 | 91 | 1008.1 |
| 20260507011027 | 9 | 0 | 1.6 | 17.7 | 0.30 | 0.81 | 0.81 | 91 | 1008.2 |
| 20260507010530 | 9 | 132 | 4.8 | 20.9 | 0.30 | 0.79 | 0.79 | 91 | 1008.3 |
| 20260507010052 | 9 | 0 | 3.2 | 20.9 | 0.30 | 0.76 | 0.76 | 91 | 1008.4 |
| 20260507005526 | 9 | 194 | 3.2 | 20.9 | 0.33 | 0.76 | 0.76 | 91 | 1008.5 |
| 20260507005026 | 9 | 130 | 3.2 | 16.1 | 0.36 | 0.74 | 0.74 | 91 | 1008.5 |
| 20260507004539 | 9 | 286 | 3.2 | 14.5 | 0.41 | 0.71 | 0.71 | 91 | 1008.5 |
| 20260507004028 | 9 | 288 | 1.6 | 14.5 | 0.41 | 0.71 | 0.71 | 91 | 1008.7 |
| 20260507003527 | 9 | 227 | 1.6 | 14.5 | 0.38 | 0.66 | 0.66 | 91 | 1008.9 |
| 20260507003037 | 9 | 229 | 1.6 | 11.3 | 0.38 | 0.64 | 0.64 | 91 | 1008.9 |
| 20260507002528 | 9 | 0 | 3.2 | 14.5 | 0.41 | 0.61 | 0.61 | 91 | 1008.9 |
| 20260507002027 | 9 | 252 | 1.6 | 16.1 | 0.38 | 0.58 | 0.58 | 91 | 1009.0 |
| 20260507001537 | 9 | 0 | 1.6 | 16.1 | 0.36 | 0.56 | 0.56 | 91 | 1009.2 |
| 20260507001028 | 9 | 225 | 1.6 | 16.1 | 0.33 | 0.51 | 0.51 | 91 | 1009.2 |
| 20260507000526 | 9 | 86 | 3.2 | 17.7 | 0.30 | 0.48 | 0.48 | 91 | 1009.1 |
| 20260507000037 | 9 | 0 | 1.6 | 17.7 | 0.28 | 0.46 | 0.46 | 91 | 1009.1 |
| 20260506235528 | 9 | 260 | 1.6 | 9.7 | 0.25 | 0.43 | 0.43 | 90 | 1009.3 |
| 20260506235028 | 9 | 311 | 1.6 | 8.0 | 0.18 | 0.36 | 0.36 | 90 | 1009.2 |
| 20260506234539 | 9 | 0 | 0.0 | 6.4 | 0.15 | 0.30 | 0.30 | 90 | 1009.5 |
| 20260506234027 | 9 | 134 | 0.0 | 9.7 | 0.15 | 0.30 | 0.30 | 90 | 1009.2 |
| 20260506233526 | 9 | 130 | 0.0 | 9.7 | 0.13 | 0.28 | 0.28 | 90 | 1009.3 |
| 20260506233054 | 9 | 0 | 1.6 | 9.7 | 0.08 | 0.23 | 0.23 | 90 | 1009.4 |
| 20260506232529 | 9 | 234 | 0.0 | 17.7 | 0.08 | 0.20 | 0.20 | 90 | 1009.4 |
| 20260506232027 | 9 | 231 | 3.2 | 17.7 | 0.08 | 0.20 | 0.20 | 90 | 1009.4 |
| 20260506231540 | 10 | 262 | 3.2 | 14.5 | 0.10 | 0.20 | 0.20 | 90 | 1009.7 |
| 20260506231027 | 10 | 245 | 1.6 | 20.9 | 0.08 | 0.18 | 0.18 | 90 | 1009.7 |
| 20260506230528 | 10 | 244 | 6.4 | 20.9 | 0.10 | 0.18 | 0.18 | 90 | 1009.4 |
| 20260506230038 | 10 | 216 | 3.2 | 22.5 | 0.10 | 0.18 | 0.18 | 90 | 1009.4 |
| 20260506225529 | 9 | 82 | 3.2 | 22.5 | 0.13 | 0.18 | 0.18 | 90 | 1009.4 |
| 20260506225028 | 9 | 0 | 1.6 | 27.4 | 0.13 | 0.18 | 0.18 | 90 | 1009.7 |
| 20260506224537 | 9 | 240 | 3.2 | 27.4 | 0.10 | 0.15 | 0.15 | 90 | 1009.5 |
| 20260506224031 | 9 | 242 | 6.4 | 27.4 | 0.10 | 0.15 | 0.15 | 89 | 1009.7 |
| 20260506223531 | 9 | 252 | 3.2 | 16.1 | 0.10 | 0.15 | 0.15 | 89 | 1010.0 |
| 20260506223038 | 9 | 45 | 1.6 | 14.5 | 0.13 | 0.15 | 0.15 | 89 | 1009.6 |
| 20260506222527 | 9 | 0 | 0.0 | 8.0 | 0.10 | 0.13 | 0.13 | 89 | 1009.6 |
| 20260506222030 | 9 | 0 | 0.0 | 12.9 | 0.10 | 0.13 | 0.13 | 89 | 1009.9 |
| 20260506221539 | 9 | 0 | 0.0 | 12.9 | 0.08 | 0.10 | 0.10 | 89 | 1010.1 |
| 20260506221026 | 10 | 253 | 1.6 | 12.9 | 0.08 | 0.10 | 0.10 | 89 | 1010.3 |
| 20260506220527 | 10 | 0 | 3.2 | 12.9 | 0.05 | 0.08 | 0.08 | 89 | 1010.3 |
| 20260506220041 | 10 | 0 | 0.0 | 6.4 | 0.05 | 0.08 | 0.08 | 88 | 1010.7 |
| 20260506215526 | 10 | 120 | 0.0 | 6.4 | 0.03 | 0.05 | 0.05 | 88 | 1010.5 |
| 20260506215026 | 10 | 0 | 0.0 | 9.7 | 0.03 | 0.05 | 0.05 | 88 | 1010.6 |
| 20260506214538 | 10 | 0 | 0.0 | 9.7 | 0.03 | 0.05 | 0.05 | 88 | 1010.6 |
| 20260506214027 | 10 | 0 | 1.6 | 6.4 | 0.03 | 0.05 | 0.05 | 87 | 1010.9 |
| 20260506213526 | 10 | 0 | 1.6 | 6.4 | 0.03 | 0.05 | 0.05 | 87 | 1010.8 |
| 20260506213036 | 10 | 0 | 1.6 | 6.4 | 0.00 | 0.03 | 0.03 | 86 | 1010.7 |
| 20260506212527 | 11 | 108 | 1.6 | 12.9 | 0.00 | 0.03 | 0.03 | 87 | 1010.9 |
| 20260506212027 | 11 | 0 | 0.0 | 25.7 | 0.00 | 0.03 | 0.03 | 87 | 1010.7 |
| 20260506211536 | 11 | 213 | 3.2 | 25.7 | 0.00 | 0.03 | 0.03 | 87 | 1010.5 |
| 20260506211027 | 11 | 248 | 4.8 | 25.7 | 0.00 | 0.03 | 0.03 | 87 | 1011.0 |
| 20260506210527 | 11 | 219 | 4.8 | 14.5 | 0.00 | 0.03 | 0.03 | 87 | 1011.1 |
| 20260506210044 | 11 | 223 | 1.6 | 14.5 | 0.00 | 0.03 | 0.03 | 87 | 1011.1 |
| 20260506205527 | 11 | 200 | 3.2 | 14.5 | 0.00 | 0.03 | 0.03 | 87 | 1011.0 |
| 20260506205027 | 11 | 76 | 1.6 | 17.7 | 0.00 | 0.03 | 0.03 | 86 | 1011.1 |
| 20260506204540 | 11 | 268 | 3.2 | 17.7 | 0.00 | 0.03 | 0.03 | 87 | 1011.1 |
| 20260506204026 | 11 | 258 | 0.0 | 11.3 | 0.00 | 0.03 | 0.03 | 86 | 1010.9 |
| 20260506203529 | 11 | 129 | 1.6 | 9.7 | 0.00 | 0.03 | 0.03 | 86 | 1011.0 |
| 20260506203039 | 11 | 198 | 0.0 | 8.0 | 0.00 | 0.03 | 0.03 | 86 | 1011.0 |
| 20260506202528 | 11 | 0 | 1.6 | 12.9 | 0.00 | 0.03 | 0.03 | 86 | 1011.1 |
| 20260506202027 | 11 | 102 | 1.6 | 12.9 | 0.00 | 0.03 | 0.03 | 86 | 1010.7 |
| 20260506201547 | 11 | 0 | 1.6 | 9.7 | 0.00 | 0.03 | 0.03 | 86 | 1010.6 |
| 20260506201027 | 11 | 232 | 1.6 | 9.7 | 0.00 | 0.03 | 0.03 | 86 | 1010.9 |
| 20260506200527 | 11 | 229 | 1.6 | 9.7 | 0.00 | 0.03 | 0.03 | 86 | 1010.8 |
| 20260506200042 | 11 | 0 | 1.6 | 8.0 | 0.00 | 0.03 | 0.03 | 86 | 1010.4 |
| 20260506195527 | 11 | 125 | 0.0 | 11.3 | 0.00 | 0.03 | 0.03 | 86 | 1010.7 |
| 20260506195031 | 11 | 0 | 0.0 | 11.3 | 0.00 | 0.03 | 0.03 | 86 | 1010.7 |
| 20260506194547 | 11 | 0 | 3.2 | 12.9 | 0.00 | 0.03 | 0.03 | 85 | 1010.8 |
| 20260506194027 | 11 | 144 | 1.6 | 12.9 | 0.00 | 0.03 | 0.03 | 85 | 1010.9 |
| 20260506193526 | 11 | 104 | 4.8 | 12.9 | 0.00 | 0.03 | 0.03 | 85 | 1011.0 |
| 20260506193042 | 11 | 0 | 1.6 | 8.0 | 0.00 | 0.03 | 0.03 | 85 | 1011.3 |
| 20260506192531 | 11 | 90 | 1.6 | 9.7 | 0.00 | 0.03 | 0.03 | 85 | 1011.0 |
| 20260506192027 | 11 | 78 | 3.2 | 9.7 | 0.00 | 0.03 | 0.03 | 86 | 1011.1 |
| 20260506191538 | 11 | 253 | 0.0 | 8.0 | 0.00 | 0.03 | 0.03 | 86 | 1011.3 |
| 20260506191028 | 11 | 0 | 1.6 | 8.0 | 0.00 | 0.03 | 0.03 | 86 | 1011.4 |
| 20260506190528 | 11 | 0 | 1.6 | 8.0 | 0.00 | 0.03 | 0.03 | 86 | 1011.3 |
| 20260506190037 | 11 | 0 | 0.0 | 11.3 | 0.00 | 0.03 | 0.03 | 87 | 1011.5 |
| 20260506185527 | 10 | 0 | 1.6 | 11.3 | 0.00 | 0.03 | 0.03 | 86 | 1011.5 |
| 20260506185027 | 10 | 180 | 1.6 | 6.4 | 0.00 | 0.03 | 0.03 | 86 | 1011.4 |
| 20260506184544 | 10 | 51 | 1.6 | 14.5 | 0.00 | 0.03 | 0.03 | 86 | 1011.4 |
| 20260506184032 | 10 | 170 | 0.0 | 14.5 | 0.00 | 0.03 | 0.03 | 86 | 1011.4 |
| 20260506183527 | 10 | 141 | 1.6 | 9.7 | 0.00 | 0.03 | 0.03 | 86 | 1011.6 |
| 20260506183039 | 10 | 290 | 1.6 | 9.7 | 0.00 | 0.03 | 0.03 | 86 | 1011.6 |
| 20260506182526 | 10 | 0 | 0.0 | 9.7 | 0.00 | 0.03 | 0.03 | 86 | 1011.6 |
| 20260506182026 | 10 | 148 | 0.0 | 6.4 | 0.00 | 0.03 | 0.03 | 85 | 1011.6 |
| 20260506181537 | 11 | 61 | 0.0 | 6.4 | 0.00 | 0.03 | 0.03 | 85 | 1011.9 |
| 20260506181031 | 11 | 86 | 1.6 | 16.1 | 0.00 | 0.03 | 0.03 | 85 | 1011.7 |
| 20260506180653 | 11 | 0 | 0.0 | 16.1 | 0.00 | 0.03 | 0.03 | 85 | 1011.9 |
| 20260506180041 | 11 | 0 | 3.2 | 16.1 | 0.00 | 0.03 | 0.03 | 85 | 1011.9 |
| 20260506175529 | 11 | 284 | 1.6 | 9.7 | 0.00 | 0.03 | 0.03 | 85 | 1011.9 |
| 20260506175027 | 11 | 0 | 1.6 | 9.7 | 0.00 | 0.03 | 0.03 | 85 | 1012.0 |
| 20260506174536 | 11 | 0 | 1.6 | 9.7 | 0.00 | 0.03 | 0.03 | 84 | 1012.1 |
| 20260506174027 | 11 | 113 | 1.6 | 11.3 | 0.00 | 0.03 | 0.03 | 84 | 1012.0 |
| 20260506173527 | 12 | 153 | 1.6 | 11.3 | 0.00 | 0.03 | 0.03 | 85 | 1012.2 |
| 20260506173045 | 12 | 0 | 1.6 | 12.9 | 0.00 | 0.03 | 0.03 | 84 | 1012.3 |
| 20260506172527 | 12 | 117 | 1.6 | 12.9 | 0.00 | 0.03 | 0.03 | 85 | 1012.3 |
| 20260506172028 | 12 | 118 | 3.2 | 14.5 | 0.00 | 0.03 | 0.03 | 85 | 1012.3 |
| 20260506171548 | 12 | 355 | 3.2 | 14.5 | 0.00 | 0.03 | 0.03 | 85 | 1012.1 |
| 20260506171027 | 11 | 92 | 1.6 | 11.3 | 0.00 | 0.03 | 0.03 | 85 | 1012.2 |
| 20260506170526 | 11 | 225 | 1.6 | 11.3 | 0.00 | 0.03 | 0.03 | 85 | 1012.1 |
| 20260506170039 | 11 | 198 | 1.6 | 9.7 | 0.00 | 0.03 | 0.03 | 85 | 1012.2 |
| 20260506165529 | 11 | 0 | 1.6 | 12.9 | 0.00 | 0.03 | 0.03 | 85 | 1012.2 |
| 20260506165027 | 11 | 76 | 1.6 | 12.9 | 0.00 | 0.03 | 0.03 | 85 | 1012.4 |
| 20260506164550 | 11 | 153 | 1.6 | 14.5 | 0.00 | 0.03 | 0.03 | 85 | 1012.6 |
| 20260506164026 | 11 | 69 | 1.6 | 14.5 | 0.00 | 0.03 | 0.03 | 85 | 1012.6 |
| 20260506163527 | 11 | 288 | 3.2 | 12.9 | 0.00 | 0.03 | 0.03 | 85 | 1012.7 |
| 20260506163038 | 11 | 160 | 1.6 | 12.9 | 0.00 | 0.03 | 0.03 | 86 | 1012.8 |
| 20260506162526 | 11 | 123 | 1.6 | 11.3 | 0.00 | 0.03 | 0.03 | 86 | 1012.5 |
| 20260506162030 | 11 | 0 | 1.6 | 11.3 | 0.00 | 0.03 | 0.03 | 86 | 1012.9 |
| 20260506161539 | 11 | 133 | 1.6 | 11.3 | 0.00 | 0.03 | 0.03 | 86 | 1013.1 |
| 20260506161030 | 11 | 103 | 1.6 | 11.3 | 0.00 | 0.03 | 0.03 | 86 | 1012.9 |
| 20260506160527 | 11 | 98 | 1.6 | 16.1 | 0.00 | 0.03 | 0.03 | 86 | 1013.0 |
| 20260506160046 | 11 | 157 | 1.6 | 16.1 | 0.00 | 0.03 | 0.03 | 86 | 1012.9 |
| 20260506155526 | 11 | 95 | 3.2 | 17.7 | 0.00 | 0.03 | 0.03 | 86 | 1013.0 |